Wind_Speed
60 60 60 61 61 61 62 63 64 64 65 66 67 68 69 69 69 69 69 70 70 70 70 71 71 72 73 74 75 76 76 77 78 79 79 80 80 79 79 79 79 79 79 79 79 79 79 79 79 79 80 80
62 62 63 64 64 65 65 65 66 66 66 66 67 69 70 71 72 73 72 72 73 72 72 72 73 73 73 74 74 75 76 77 77 78 79 80 80 80 81 81 81 81 81 81 81 81 81 81 81 81 82 82
66 65 65 66 66 67 67 67 67 67 68 68 68 69 70 72 73 75 75 75 75 75 75 74 74 75 75 75 75 75 76 77 77 78 79 79 80 80 81 81 82 82 82 83 83 83 83 83 83 84 84 84
69 68 68 67 67 67 67 68 68 68 68 69 69 70 70 72 73 75 76 77 78 78 78 78 77 77 77 77 77 77 78 78 78 79 79 79 80 80 81 81 82 82 83 83 84 84 84 85 85 85 85 85
70 71 71 69 68 68 68 68 69 69 69 70 70 71 71 72 73 74 76 77 79 79 80 80 80 80 80 80 80 80 80 80 80 80 80 80 80 81 81 81 81 82 82 82 83 84 84 85 85 85 85 85
71 72 73 73 73 73 73 73 73 73 73 73 73 73 74 74 75 75 76 77 78 79 80 81 82 83 83 83 83 83 83 83 82 82 82 82 82 82 82 82 82 82 82 82 82 83 83 84 85 85 85 86
73 74 75 76 76 77 78 78 78 78 78 78 78 78 78 78 78 78 77 77 77 78 79 80 81 83 84 85 85 86 86 86 86 85 85 85 85 84 84 84 84 84 84 84 84 84 84 84 84 85 85 86
77 78 78 79 79 79 80 81 82 82 81 81 81 81 81 82 81 81 80 79 78 78 79 80 81 83 84 85 86 87 87 88 88 88 88 88 88 88 87 87 87 87 87 87 86 86 86 86 86 86 86 87
79 80 81 81 81 81 82 83 83 83 83 83 83 83 83 84 84 84 83 82 82 82 82 82 83 83 84 85 86 87 88 89 90 90 90 91 91 91 91 90 90 90 90 90 90 90 90 90 90 90 89 89
81 82 82 82 83 82 82 82 82 82 82 83 83 83 83 83 83 84 85 86 86 86 85 85 85 85 85 86 87 88 89 90 91 92 92 93 93 93 93 93 93 93 94 94 93 93 93 93 93 93 93 93
80 81 82 82 83 83 82 81 81 81 81 82 82 82 82 82 82 83 85 86 87 87 87 87 87 87 87 87 88 89 90 91 92 92 93 94 95 95 96 96 96 96 96 96 96 96 96 96 96 96 96 96
78 79 80 80 81 82 81 81 81 81 81 82 82 82 82 82 82 83 84 85 86 87 87 88 88 88 89 89 89 90 90 91 92 93 94 95 95 96 97 97 97 98 98 98 98 98 98 98 98 98 98 98
81 82 82 82 82 82 82 82 83 83 83 83 84 84 84 84 84 84 84 85 86 87 88 89 89 89 90 90 91 91 92 92 93 94 95 95 96 97 97 98 98 99 99 99 99 99 99 99 100 100 100 100
86 87 86 86 85 85 85 86 86 86 86 86 86 86 86 86 86 86 86 86 87 87 88 89 89 90 91 91 92 92 93 93 94 95 95 96 97 97 98 99 99 100 100 101 101 101 101 101 101 101 102 102
90 90 90 90 90 89 89 89 89 89 88 88 88 88 88 88 88 88 88 88 89 89 89 89 90 91 91 92 92 93 93 94 95 95 96 96 97 98 98 99 100 100 101 101 102 102 103 103 103 104 104 104
92 92 92 93 93 92 92 92 92 92 91 91 91 91 91 91 91 91 91 92 92 92 92 92 92 93 93 94 94 95 96 96 96 97 97 98 98 98 99 100 100 101 101 102 103 103 104 104 105 105 106 106
91 91 92 92 92 92 93 93 93 94 94 94 94 94 94 94 94 94 95 95 95 95 95 95 96 96 96 96 97 98 98 99 99 100 100 100 101 101 101 101 102 102 103 103 104 104 105 105 106 106 107 107
90 90 91 91 91 92 92 93 93 94 94 95 96 96 96 96 96 96 96 97 97 98 98 98 99 98 98 99 100 101 101 102 102 103 103 103 103 104 104 104 104 105 105 105 106 106 106 107 107 108 108 109
91 91 90 91 91 91 92 92 93 94 94 95 95 96 96 96 97 97 97 98 98 99 100 100 100 100 100 101 102 103 103 104 105 106 106 106 106 106 107 107 107 108 108 108 108 108 109 109 109 109 110 110
93 93 92 92 92 93 93 94 94 95 96 96 96 96 97 98 98 99 99 99 100 100 101 102 102 102 102 103 104 104 105 106 107 108 108 108 108 108 109 109 109 110 110 110 110 110 111 111 111 111 112 112
94 94 94 95 95 96 97 97 98 99 99 98 99 99 100 100 101 101 102 102 102 103 104 104 104 104 104 104 105 106 108 108 109 109 109 110 110 111 111 111 111 112 112 112 113 113 113 113 113 114 114 114
96 97 97 98 99 99 100 101 101 101 101 101 101 102 103 103 104 104 105 105 106 106 107 107 107 107 107 108 109 110 111 111 112 112 112 112 113 113 114 114 114 115 115 116 116 116 116 116 117 117 117 117
99 99 100 101 101 102 102 103 104 103 103 103 104 104 105 106 106 107 108 108 108 109 109 109 109 109 109 111 112 113 114 114 114 114 115 116 116 117 117 117 118 118 119 119 119 120 120 120 120 121 121 121
101 102 102 103 104 104 105 105 105 105 105 106 107 108 108 108 109 110 110 110 111 111 111 111 111 111 112 113 114 115 116 116 116 117 117 118 119 119 120 120 120 121 122 122 122 122 122 123 123 123 124 124
104 104 105 106 106 107 107 107 107 108 109 110 110 111 111 112 112 113 113 113 112 113 113 113 114 115 116 116 117 117 118 118 119 119 120 120 121 121 121 122 123 123 124 123 123 124 125 125 125 126 126 127
105 106 107 107 108 108 109 109 110 111 112 113 113 114 115 115 116 115 115 115 115 115 116 117 118 119 119 119 120 120 121 121 122 122 123 123 123 124 124 125 125 126 126 126 126 127 128 128 128 129 129 130
106 107 108 108 108 109 110 110 111 112 113 114 115 116 117 117 117 117 117 117 117 118 119 120 121 121 122 122 123 123 124 124 125 125 126 126 126 127 127 127 127 127 128 128 129 129 129 130 130 130 131 132
102 104 104 105 107 108 108 109 110 111 112 114 115 115 116 116 116 116 116 117 117 118 119 120 121 122 122 123 123 124 124 125 125 126 126 127 127 127 126 126 127 127 127 127 128 128 127 128 128 128 129 130
94 95 96 98 99 101 102 103 104 105 107 109 110 110 111 111 111 111 112 113 114 114 115 115 116 117 117 118 118 119 119 120 120 121 122 122 122 122 121 122 121 122 122 123 123 122 122 123 123 123 124 124
86 87 88 90 91 92 94 94 96 97 100 101 101 102 103 103 103 103 104 105 105 106 106 107 107 107 108 108 108 109 109 110 111 112 112 112 112 113 113 114 113 114 115 115 115 116 116 117 117 117 118 119
82 82 83 85 86 87 87 88 90 93 94 95 95 95 96 96 97 97 98 98 99 99 100 100 100 101 101 101 102 102 102 103 104 105 105 105 106 107 107 107 107 108 109 109 109 111 112 112 112 113 113 114
Wind_Direction
246 246 246 246 246 247 248 249 250 250 249 248 248 248 248 248 247 247 247 247 247 247 248 249 249 250 250 250 251 251 251 252 252 253 253 253 253 253 253 254 254 254 254 254 254 254 254 255 255 255 256 256
246 246 246 246 246 246 247 248 249 250 251 250 250 249 249 249 248 248 248 248 247 247 247 248 249 249 250 250 251 251 251 252 252 252 253 253 254 254 254 254 254 254 254 254 254 255 255 255 256 256 256 257
246 246 246 247 247 248 248 249 250 251 251 252 251 251 251 251 250 250 250 250 249 249 248 248 249 249 249 250 250 251 251 251 252 252 253 253 253 254 254 254 254 254 255 255 255 255 255 256 256 256 257 257
247 247 247 248 249 250 250 251 252 252 252 252 252 252 252 252 252 252 251 251 251 251 250 250 249 249 249 250 250 250 251 251 251 252 252 253 253 253 254 254 254 255 255 255 255 255 256 256 256 257 257 257
248 248 247 247 248 249 250 251 251 252 253 253 253 254 254 254 254 253 252 252 252 252 252 251 251 251 250 250 250 251 251 251 252 252 252 252 253 253 254 254 254 255 255 255 255 256 256 256 256 256 257 257
250 249 249 249 248 249 250 251 252 252 252 253 253 254 254 255 255 254 253 253 252 252 252 252 252 252 252 251 251 251 251 251 252 252 252 253 253 253 253 254 254 254 254 255 255 255 256 256 256 256 257 257
251 251 251 251 251 251 251 252 253 253 253 254 254 254 254 254 255 255 254 253 252 252 253 253 253 253 253 253 252 252 252 252 253 253 253 253 253 253 254 254 254 254 254 254 254 254 255 255 256 256 256 256
251 252 252 252 253 253 253 253 253 253 254 254 254 255 255 255 255 255 254 253 253 253 254 254 254 254 253 253 253 253 253 254 254 254 254 254 254 254 254 255 255 255 255 255 255 255 255 255 255 255 256 256
252 252 253 253 253 254 254 254 254 254 254 255 255 256 256 256 256 255 254 254 255 255 255 255 255 255 254 254 254 254 254 254 254 254 255 255 255 255 255 256 256 256 256 256 256 256 256 256 256 256 256 256
252 252 253 253 253 253 253 253 254 254 255 255 256 256 256 256 256 256 255 255 256 256 256 256 256 255 255 254 254 254 254 254 255 255 255 255 255 256 256 256 257 257 257 257 257 257 257 258 257 257 257 257
252 253 253 254 254 254 254 254 254 254 255 255 256 256 256 257 257 257 256 256 257 257 257 256 256 256 255 255 255 255 255 255 255 255 255 256 256 256 256 257 257 257 258 258 258 258 258 258 258 258 258 258
254 254 254 254 255 255 255 255 255 255 256 256 257 257 258 258 258 258 257 257 257 257 257 257 256 256 256 255 255 255 255 255 255 256 256 256 256 256 257 257 257 257 258 258 258 258 259 259 259 259 259 259
257 257 257 256 257 257 257 257 257 258 258 258 258 258 258 259 259 259 258 258 258 258 257 257 257 256 256 256 256 256 256 256 256 256 256 256 256 257 257 257 257 257 258 258 258 258 259 259 259 259 259 260
259 259 260 260 260 260 261 260 260 260 260 260 259 259 259 259 259 259 259 259 258 258 258 257 257 257 257 257 256 256 256 256 256 256 256 256 256 257 257 257 257 257 257 258 258 258 259 259 259 259 259 260
260 261 261 262 263 263 263 263 263 263 263 262 262 261 261 261 260 260 260 259 259 259 259 258 258 257 257 257 257 257 256 256 256 256 256 256 257 257 257 257 257 257 257 258 258 258 258 258 259 259 259 259
260 261 262 263 263 264 264 264 264 264 264 264 264 263 263 262 262 262 262 261 261 260 259 259 259 258 258 258 258 257 257 257 257 257 257 257 257 257 257 257 257 257 257 258 258 258 258 258 258 259 259 259
260 261 261 262 262 263 263 263 264 264 264 264 264 264 264 264 263 263 263 262 262 262 261 260 260 259 259 259 259 259 259 259 259 259 259 259 259 258 258 258 258 258 258 258 258 258 258 258 258 259 259 259
259 260 260 261 261 261 262 262 262 263 263 263 263 264 264 264 264 264 263 263 263 263 262 261 261 261 260 260 260 260 260 260 260 260 260 260 260 260 260 260 260 260 259 259 259 259 259 259 259 259 259 259
258 258 259 260 260 261 261 261 262 262 262 262 262 263 263 263 263 263 263 263 263 263 263 263 262 262 262 261 261 261 261 261 261 261 261 261 261 261 261 261 261 261 261 260 260 260 260 260 260 260 260 260
257 257 258 259 259 260 260 260 260 260 260 261 261 262 262 262 262 263 263 263 263 263 264 263 263 263 263 263 263 263 263 262 262 262 262 262 262 262 262 262 262 262 262 262 261 261 261 261 261 261 261 261
257 258 258 258 258 258 259 259 259 259 260 260 261 261 262 262 262 262 262 263 263 263 263 263 264 264 264 264 264 264 264 264 264 263 264 264 264 264 264 264 263 263 263 263 263 263 262 262 262 262 262 262
259 258 258 258 258 258 258 259 259 260 260 261 261 261 262 262 262 262 262 262 262 262 263 263 263 264 264 264 264 264 264 264 264 264 264 264 264 264 264 264 264 264 264 264 264 264 264 264 263 263 263 263
261 261 260 260 260 260 260 260 260 261 261 261 261 261 261 261 262 262 262 262 262 262 263 263 263 263 263 263 263 263 264 264 264 264 264 264 264 264 264 264 264 264 264 264 264 264 265 265 264 264 264 264
263 263 263 263 263 263 263 263 263 263 263 263 263 262 262 262 262 262 262 262 263 263 263 263 263 263 263 263 263 263 263 263 264 264 264 264 264 264 264 264 264 264 264 264 264 265 265 265 265 265 265 265
263 263 263 263 263 264 264 264 265 265 265 265 265 265 265 264 264 264 264 264 265 265 265 265 265 264 264 264 264 264 264 264 264 264 264 264 264 264 265 265 265 265 265 265 265 265 265 265 265 265 265 265
263 263 263 263 264 264 264 265 265 265 265 265 265 265 265 265 265 265 266 266 266 267 267 267 266 266 266 266 266 266 266 266 266 266 266 266 266 266 266 266 266 266 266 266 266 266 266 266 266 266 266 266
262 263 263 264 264 264 264 264 264 265 265 265 265 265 265 265 266 266 266 267 267 267 267 267 267 267 267 267 267 268 268 268 268 268 268 268 268 267 267 268 268 268 268 268 268 267 267 267 267 267 267 267
262 262 263 263 263 264 264 264 264 265 265 265 265 265 266 266 266 267 267 267 266 266 266 267 267 267 267 267 267 267 268 268 268 268 268 268 268 268 268 268 268 268 268 268 268 268 268 268 268 267 267 267
261 261 262 262 262 263 263 263 264 264 264 264 265 265 266 266 266 266 266 266 266 266 266 266 266 267 267 267 267 267 267 267 267 267 267 267 267 267 267 267 267 267 267 267 267 267 267 267 267 267 267 267
261 261 261 261 262 262 262 263 263 263 263 263 264 265 265 265 265 265 265 266 266 266 266 266 266 266 266 266 266 266 266 266 266 266 266 266 267 266 266 266 266 266 266 267 267 267 266 266 266 266 266 266
262 262 262 262 262 262 262 263 263 263 263 263 264 264 264 264 264 265 265 265 265 265 265 265 265 265 265 266 266 266 266 266 266 266 266 266 266 266 266 266 266 266 266 266 266 266 266 266 266 266 266 266
Height
10703 10704 10704 10705 10706 10707 10708 10709 10709 10710 10711 10713 10714 10714 10715 10716 10717 10718 10719 10720 10721 10722 10722 10723 10724 10725 10726 10727 10727 10728 10729 10730 10731 10732 10734 10735 10737 10738 10739 10741 10742 10743 10744 10745 10746 10747 10749 10750 10751 10751 10752 10753
10697 10697 10698 10698 10699 10700 10701 10702 10703 10704 10705 10707 10708 10708 10709 10710 10711 10712 10713 10713 10714 10715 10716 10717 10718 10718 10719 10720 10721 10721 10722 10723 10725 10726 10727 10728 10729 10730 10732 10733 10734 10735 10736 10737 10739 10740 10741 10742 10743 10744 10745 10746
10690 10691 10691 10692 10693 10694 10696 10697 10697 10698 10699 10700 10701 10702 10702 10703 10704 10705 10706 10706 10707 10708 10709 10710 10711 10712 10712 10713 10714 10714 10715 10716 10717 10718 10719 10720 10721 10722 10724 10725 10726 10727 10728 10729 10731 10732 10733 10734 10735 10736 10737 10738
10683 10684 10685 10687 10688 10689 10690 10691 10691 10692 10693 10694 10694 10695 10696 10696 10697 10697 10698 10699 10700 10701 10702 10703 10704 10705 10705 10706 10707 10707 10708 10709 10710 10710 10712 10713 10713 10715 10716 10717 10718 10719 10721 10721 10722 10724 10725 10726 10727 10728 10729 10730
10677 10678 10679 10681 10682 10683 10684 10684 10685 10686 10686 10687 10687 10688 10688 10689 10689 10690 10691 10691 10692 10693 10694 10695 10696 10697 10698 10698 10699 10700 10700 10701 10702 10703 10704 10705 10706 10707 10708 10709 10710 10711 10713 10713 10714 10715 10716 10718 10719 10720 10721 10722
10671 10671 10672 10674 10675 10676 10676 10677 10678 10678 10679 10680 10680 10680 10680 10681 10681 10682 10683 10684 10684 10685 10687 10687 10688 10689 10689 10690 10691 10692 10692 10693 10694 10695 10696 10697 10698 10699 10700 10700 10701 10703 10704 10705 10706 10707 10708 10709 10710 10712 10713 10714
10663 10664 10665 10666 10667 10667 10668 10669 10669 10670 10671 10671 10671 10672 10672 10673 10673 10674 10675 10676 10677 10678 10679 10679 10680 10681 10682 10682 10683 10684 10684 10685 10686 10687 10688 10689 10689 10690 10691 10692 10693 10694 10695 10696 10697 10698 10700 10701 10702 10703 10704 10705
10655 10656 10657 10657 10658 10659 10660 10660 10661 10662 10663 10663 10663 10664 10664 10665 10666 10667 10668 10668 10669 10670 10671 10671 10672 10673 10674 10675 10675 10676 10676 10677 10678 10679 10679 10680 10681 10682 10683 10684 10684 10685 10686 10687 10688 10689 10691 10692 10693 10694 10695 10696
10648 10648 10648 10649 10650 10651 10651 10651 10652 10654 10655 10655 10655 10656 10656 10657 10658 10659 10660 10661 10661 10662 10663 10663 10664 10665 10666 10667 10667 10668 10668 10669 10670 10671 10671 10672 10672 10673 10674 10675 10676 10676 10677 10678 10679 10680 10681 10682 10684 10685 10686 10687
10640 10639 10639 10640 10641 10642 10642 10643 10644 10646 10647 10647 10647 10648 10649 10649 10650 10651 10652 10652 10653 10654 10655 10655 10656 10657 10657 10658 10659 10659 10660 10660 10661 10662 10663 10663 10664 10665 10666 10666 10667 10667 10668 10669 10670 10671 10672 10673 10674 10675 10676 10678
10632 10632 10632 10632 10633 10633 10634 10635 10637 10638 10639 10640 10639 10640 10641 10641 10642 10643 10643 10644 10644 10645 10646 10647 10647 10648 10648 10649 10650 10651 10651 10652 10652 10653 10654 10654 10655 10655 10656 10657 10658 10658 10658 10659 10660 10661 10662 10663 10664 10665 10667 10668
10625 10624 10624 10624 10624 10625 10626 10628 10629 10630 10631 10632 10632 10632 10632 10633 10633 10634 10635 10635 10635 10636 10637 10638 10638 10639 10639 10640 10641 10642 10642 10643 10643 10644 10644 10645 10645 10646 10646 10647 10648 10648 10649 10649 10651 10652 10652 10653 10654 10655 10656 10657
10617 10616 10616 10616 10617 10618 10619 10620 10621 10622 10623 10623 10623 10623 10624 10624 10625 10625 10625 10626 10626 10627 10628 10628 10629 10629 10630 10630 10631 10632 10632 10633 10633 10633 10634 10634 10635 10635 10636 10637 10638 10639 10639 10640 10641 10641 10642 10643 10644 10645 10646 10647
10608 10608 10608 10608 10609 10610 10611 10611 10612 10612 10613 10614 10613 10614 10615 10615 10615 10615 10615 10616 10616 10616 10617 10618 10619 10619 10620 10620 10621 10622 10622 10622 10622 10623 10623 10624 10624 10625 10625 10626 10628 10629 10629 10630 10630 10631 10632 10633 10634 10634 10635 10636
10599 10600 10600 10600 10601 10601 10601 10602 10602 10602 10602 10602 10602 10604 10605 10605 10605 10605 10605 10605 10606 10606 10607 10608 10608 10609 10609 10609 10610 10611 10611 10611 10611 10612 10612 10613 10614 10614 10615 10616 10617 10618 10619 10619 10620 10621 10621 10622 10623 10623 10624 10625
10591 10591 10591 10591 10591 10592 10592 10592 10591 10591 10591 10591 10592 10593 10593 10594 10595 10595 10594 10594 10594 10595 10596 10597 10597 10598 10599 10599 10599 10599 10599 10600 10600 10600 10601 10602 10603 10604 10604 10605 10606 10606 10607 10608 10609 10610 10610 10611 10611 10612 10613 10613
10581 10581 10581 10581 10582 10582 10582 10582 10581 10580 10581 10581 10581 10581 10582 10582 10583 10583 10583 10583 10583 10584 10585 10585 10586 10587 10588 10588 10588 10587 10588 10589 10589 10589 10589 10590 10591 10592 10593 10593 10594 10595 10595 10596 10597 10598 10599 10599 10600 10600 10601 10601
10570 10570 10571 10571 10571 10571 10571 10571 10571 10570 10570 10570 10570 10570 10571 10570 10571 10571 10572 10572 10572 10572 10573 10573 10574 10576 10577 10577 10576 10576 10577 10577 10577 10577 10577 10578 10579 10580 10581 10582 10582 10582 10583 10584 10585 10586 10587 10587 10588 10588 10589 10589
10559 10560 10561 10561 10561 10561 10561 10561 10560 10559 10559 10559 10559 10560 10560 10559 10559 10560 10560 10560 10560 10561 10561 10561 10563 10564 10566 10565 10564 10564 10565 10565 10565 10564 10565 10566 10567 10568 10568 10568 10569 10569 10570 10571 10572 10573 10574 10575 10575 10576 10577 10577
10549 10550 10551 10551 10551 10551 10550 10550 10548 10547 10547 10548 10549 10549 10549 10548 10548 10548 10548 10549 10549 10549 10549 10549 10550 10552 10553 10553 10552 10552 10552 10552 10551 10551 10552 10553 10554 10554 10554 10554 10555 10556 10557 10558 10559 10560 10560 10561 10562 10563 10563 10564
10539 10540 10541 10540 10540 10539 10537 10537 10536 10535 10537 10538 10539 10538 10538 10537 10536 10536 10536 10536 10537 10537 10536 10537 10538 10540 10542 10541 10541 10539 10538 10538 10538 10539 10540 10540 10541 10540 10540 10541 10541 10542 10543 10543 10544 10545 10546 10547 10548 10549 10550 10550
10527 10528 10529 10528 10526 10526 10526 10525 10524 10525 10527 10528 10528 10528 10526 10525 10525 10524 10524 10524 10523 10524 10524 10525 10527 10528 10529 10529 10527 10525 10524 10524 10525 10526 10527 10527 10526 10526 10526 10527 10527 10528 10528 10529 10530 10530 10532 10533 10533 10534 10535 10535
10515 10515 10515 10514 10514 10514 10514 10512 10513 10515 10516 10517 10516 10514 10513 10513 10513 10511 10511 10511 10511 10511 10512 10513 10515 10516 10517 10515 10513 10511 10510 10510 10512 10513 10513 10512 10512 10512 10512 10512 10513 10513 10513 10514 10514 10516 10517 10518 10518 10519 10519 10520
10502 10502 10502 10502 10502 10502 10500 10500 10503 10504 10504 10502 10500 10499 10500 10501 10500 10498 10498 10499 10499 10500 10500 10501 10502 10502 10501 10499 10498 10497 10496 10497 10498 10498 10497 10497 10497 10497 10497 10498 10498 10498 10497 10498 10500 10502 10502 10502 10502 10503 10503 10504
10491 10490 10489 10489 10490 10489 10489 10491 10492 10491 10488 10487 10486 10486 10487 10486 10485 10485 10485 10487 10488 10488 10488 10487 10486 10485 10485 10484 10484 10483 10482 10483 10484 10483 10482 10482 10482 10482 10483 10482 10482 10482 10482 10484 10486 10486 10485 10486 10486 10487 10487 10487
10480 10477 10476 10477 10478 10477 10478 10479 10478 10475 10473 10473 10473 10472 10471 10470 10470 10472 10473 10475 10476 10475 10473 10471 10469 10469 10469 10470 10469 10469 10468 10468 10468 10467 10466 10467 10467 10467 10467 10466 10466 10466 10468 10470 10469 10468 10469 10469 10470 10470 10470 10470
10467 10465 10465 10466 10466 10464 10464 10464 10463 10461 10460 10459 10458 10456 10455 10456 10457 10459 10461 10461 10461 10460 10457 10456 10454 10454 10455 10455 10454 10454 10453 10452 10452 10451 10451 10451 10451 10451 10451 10451 10452 10451 10452 10452 10450 10450 10452 10452 10453 10454 10452 10451
10454 10453 10454 10454 10452 10450 10451 10450 10448 10448 10447 10444 10442 10442 10442 10443 10444 10446 10447 10445 10445 10444 10442 10441 10440 10440 10440 10440 10439 10439 10438 10437 10436 10436 10435 10434 10434 10435 10436 10436 10436 10435 10435 10434 10432 10434 10436 10435 10436 10436 10433 10433
10443 10443 10443 10441 10440 10438 10437 10437 10436 10435 10432 10429 10429 10430 10429 10430 10431 10432 10431 10429 10429 10429 10427 10426 10425 10425 10425 10424 10424 10424 10423 10422 10420 10420 10419 10418 10419 10421 10420 10419 10420 10420 10418 10416 10417 10419 10419 10418 10418 10418 10417 10417
10433 10433 10431 10430 10429 10427 10426 10426 10424 10421 10417 10416 10418 10419 10417 10418 10418 10417 10416 10415 10414 10413 10413 10412 10411 10411 10410 10410 10409 10409 10408 10407 10405 10404 10404 10405 10405 10405 10403 10404 10405 10404 10402 10403 10404 10402 10400 10401 10402 10402 10402 10400
10421 10421 10419 10418 10418 10416 10416 10415 10411 10406 10405 10407 10408 10407 10406 10405 10404 10403 10402 10401 10400 10400 10399 10399 10399 10398 10397 10396 10395 10394 10394 10393 10391 10390 10391 10391 10390 10389 10389 10391 10391 10389 10388 10390 10388 10384 10385 10387 10387 10387 10387 10385